DateTimeUTC,F1_A11,F1_S11,BsB_S11,BsG_S11,BsR_S11,BbsB_S11,BbsG_S11,BbsR_S11,BaB_A11,BaG_A11,BaR_A11,Tu_S11,T_S11,Uu_S11,U_S11,P_S11,T1_A11
2021-06-25T02:00:00Z,00000200,20000000,,,,,,,0000.01,-000.13,-000.02,18.5,25.2,10.5,07.0,0665.3,31.1
2021-06-25T02:01:00Z,00000200,20000000,,,,,,,0000.41,0000.39,0000.01,18.5,25.2,10.5,07.0,0665.3,31.1
2021-06-25T02:02:00Z,00000200,20000000,,,,,,,-000.15,-000.14,-000.06,18.5,25.2,10.6,07.0,0665.3,31.1
2021-06-25T02:03:00Z,00000200,60000000,,,,,,,0000.13,0000.30,0000.17,18.5,25.3,10.6,07.0,0665.3,31.2
2021-06-25T02:04:00Z,00000200,40000000,0000.21,0000.23,0000.12,-000.13,0000.07,0000.03,-000.36,-000.21,0000.28,18.7,25.1,10.6,07.2,0666.4,31.1
2021-06-25T02:05:00Z,00000200,00000000,0000.58,0000.14,0000.19,0000.13,0000.10,0000.05,0000.46,0000.72,0000.19,18.8,25.1,10.6,07.2,0666.4,31.2
2021-06-25T02:06:00Z,00000200,00000000,0000.46,0000.45,0000.27,-000.26,0000.18,-000.21,0000.11,-000.11,-000.43,18.8,25.1,10.7,07.3,0666.5,31.2
2021-06-25T02:07:00Z,00000200,00000000,0001.21,0000.38,0000.25,-000.01,-000.06,-000.04,-000.16,-000.21,-000.03,18.9,25.1,10.7,07.3,0666.4,31.2
2021-06-25T02:08:00Z,00000200,00000000,0000.08,0000.62,0000.21,-000.05,0000.27,0000.05,0000.09,-000.10,0000.21,18.9,25.1,10.7,07.3,0666.4,31.2
2021-06-25T02:09:00Z,00000200,00000000,0000.42,0000.45,0000.17,0000.38,-000.07,0000.02,0000.17,0000.28,0000.22,18.9,25.1,10.7,07.3,0666.4,31.2
2021-06-25T02:10:00Z,00000200,00000000,-000.46,0000.59,0000.19,-000.54,-000.01,0000.28,0000.03,-000.53,-000.01,18.8,25.1,10.7,07.3,0666.4,31.2
2021-06-25T02:11:00Z,00000200,00000000,0000.65,0000.24,0000.45,0000.19,0000.03,0000.33,0000.01,0000.57,-000.15,18.8,25.1,10.7,07.3,0666.3,31.2
2021-06-25T02:12:00Z,00000200,00000000,0000.21,0000.27,0000.22,0000.51,0000.21,-000.19,-000.06,-000.29,-000.06,18.8,25.1,10.7,07.3,0666.4,31.2
2021-06-25T02:13:00Z,00000200,00000000,0001.04,0000.23,0000.19,-000.15,-000.33,0000.03,0000.04,0000.20,-000.09,18.8,25.1,10.7,07.3,0666.4,31.2
2021-06-25T02:14:00Z,00000200,00000000,0000.35,0000.38,0000.46,-000.58,-000.06,0000.23,0000.06,-000.02,0000.38,18.8,25.1,10.7,07.3,0666.4,31.2
2021-06-25T02:15:00Z,00000200,00000000,0001.74,0000.39,0000.08,0000.15,0000.30,-000.25,0000.07,0000.10,-000.27,18.8,25.1,10.7,07.3,0666.4,31.1
2021-06-25T02:16:00Z,00000200,00000000,0000.38,0000.20,0000.31,0000.01,0000.03,0000.13,-000.04,0000.20,0000.13,18.8,25.1,10.7,07.3,0666.4,31.1
2021-06-25T02:17:00Z,00000200,00000000,0001.00,0000.18,0000.18,-000.06,0000.21,-000.06,-000.06,0000.00,-000.18,18.8,25.1,10.8,07.3,0666.4,31.2
2021-06-25T02:18:00Z,00000200,00000000,0001.00,0000.22,0000.17,-000.07,-000.15,0000.24,-000.04,-000.39,-000.02,18.8,25.1,10.7,07.3,0666.4,31.2
2021-06-25T02:19:00Z,00000200,00000000,0000.29,0000.14,0000.29,0000.71,0000.14,0000.19,0000.34,0000.19,0000.01,18.8,25.1,10.8,07.4,0666.4,31.2
2021-06-25T02:20:00Z,00000200,00000000,0000.13,0000.00,0000.26,0000.02,0000.12,0000.09,0000.12,0000.21,0000.23,18.8,25.1,10.7,07.3,0666.4,31.1
2021-06-25T02:21:00Z,00000200,00000000,-000.06,0000.33,0000.43,0000.01,0000.24,0000.27,-000.09,0000.13,-000.05,18.8,25.0,10.6,07.2,0666.4,31.1
2021-06-25T02:22:00Z,00000200,00000000,0000.77,0000.46,0000.02,-000.35,0000.09,0000.20,-000.14,-000.26,0000.34,18.8,25.1,10.8,07.3,0666.3,31.1
2021-06-25T02:23:00Z,00000200,00000000,0001.14,0000.20,-000.16,-000.06,-000.01,0000.10,0000.32,0000.32,-000.06,18.8,25.0,10.7,07.3,0666.3,31.1
2021-06-25T02:24:00Z,00000200,00000000,0000.41,0000.38,0000.24,-000.43,0000.11,-000.17,-000.07,0000.10,0000.15,18.7,25.0,10.7,07.3,0666.2,31.1
2021-06-25T02:25:00Z,00000200,00000000,0000.04,0000.77,0000.36,-000.22,0000.14,0000.11,0000.35,0000.12,0000.28,18.7,25.0,10.8,07.3,0666.2,31.1
2021-06-25T02:26:00Z,00000200,00000000,0000.20,0000.15,0000.01,-000.50,0000.03,0000.08,0000.03,-000.29,-000.60,18.7,25.0,10.7,07.3,0666.2,31.2
2021-06-25T02:27:00Z,00000200,00000000,0000.44,0000.14,0000.04,-000.26,-000.01,0000.17,-000.31,0000.02,0000.47,18.7,25.0,10.7,07.3,0666.1,31.1
2021-06-25T02:28:00Z,00000200,00000000,0000.58,0000.56,0000.33,-000.35,-000.04,0000.33,0000.01,0000.14,-000.10,18.7,25.0,10.7,07.3,0666.2,31.1
2021-06-25T02:29:00Z,00000200,00000000,0000.40,0000.52,0000.30,0000.07,0000.04,0000.44,0000.25,0000.27,-000.14,18.7,25.0,10.7,07.3,0666.1,31.1
2021-06-25T02:30:00Z,00000200,00000000,0000.76,0000.46,0000.32,-000.09,0000.47,0000.26,-000.20,-000.20,0000.22,18.7,25.0,10.7,07.2,0666.1,31.2
2021-06-25T02:31:00Z,00000200,00000000,0001.18,0000.39,0000.28,-000.44,0000.17,0000.09,0000.28,0000.23,-000.00,18.7,25.0,10.8,07.3,0666.1,31.1
2021-06-25T02:32:00Z,00000200,00000000,0000.64,0000.23,0000.07,0000.05,0000.21,0000.25,-000.20,-000.06,-000.15,18.7,25.0,10.7,07.3,0666.2,31.1
2021-06-25T02:33:00Z,00000200,00000000,0000.59,0000.07,0000.38,-000.43,0000.01,0000.22,0000.20,-000.09,0000.38,18.7,25.0,10.7,07.3,0666.2,31.1
2021-06-25T02:34:00Z,00000200,00000000,0000.88,0000.20,0000.20,-000.21,0000.06,0000.00,0000.11,-000.18,-000.15,18.7,25.0,10.7,07.3,0666.1,31.1
2021-06-25T02:35:00Z,00000200,00000000,0000.19,0000.48,-000.18,-000.48,-000.22,0000.14,0000.17,0000.38,0000.19,18.7,25.0,10.7,07.3,0666.1,31.1
2021-06-25T02:36:00Z,00000200,00000000,0001.08,0000.59,0000.12,0000.11,-000.05,-000.01,-000.31,-000.20,-000.18,18.7,25.0,10.7,07.3,0666.1,31.1
2021-06-25T02:37:00Z,00000200,00000000,0000.43,0000.06,0000.31,-000.20,-000.23,0000.16,0000.30,0000.10,0000.48,18.7,25.0,10.8,07.4,0666.1,31.1
2021-06-25T02:38:00Z,00000200,00000000,0000.92,0000.24,0000.13,-000.26,0000.02,-000.26,-000.14,0000.24,-000.33,18.7,24.9,10.7,07.3,0666.1,31.1
2021-06-25T02:39:00Z,00000200,00000000,0000.60,0000.21,0000.36,-000.43,0000.02,0000.16,0000.26,-000.33,-000.04,18.6,24.9,10.7,07.3,0666.0,31.1
2021-06-25T02:40:00Z,00000200,00000000,0000.20,0000.40,0000.47,0000.31,-000.12,0000.09,-000.11,0000.11,-000.02,18.6,24.9,10.7,07.3,0666.0,31.1
2021-06-25T02:41:00Z,00000200,00000000,0000.77,0000.59,0000.18,-000.00,0000.20,0000.04,-000.06,-000.26,-000.10,18.6,24.9,10.8,07.4,0665.9,31.1
2021-06-25T02:42:00Z,00000200,00000000,0000.44,0000.17,0000.40,-000.77,0000.01,0000.02,0000.01,0000.21,0000.05,18.6,24.9,10.7,07.3,0665.9,31.1
2021-06-25T02:43:00Z,00000200,00000000,0000.42,0000.20,0000.27,-000.00,-000.03,0000.23,0000.18,0000.15,0000.11,18.6,24.9,10.8,07.3,0665.9,31.1
2021-06-25T02:44:00Z,00000200,00000000,0000.47,0000.45,0000.28,-000.51,0000.16,0000.02,-000.05,-000.03,0000.05,18.6,24.9,10.8,07.3,0665.9,31.1
2021-06-25T02:45:00Z,00000200,00000000,0000.91,0000.31,0000.11,0000.33,0000.20,0000.03,-000.10,0000.06,0000.22,18.6,24.9,10.7,07.3,0665.9,31.1
2021-06-25T02:46:00Z,00000200,00000000,0000.54,0000.34,0000.38,0000.40,0000.16,0000.08,0000.31,-000.00,0000.08,18.6,24.9,10.7,07.3,0665.9,31.1
2021-06-25T02:47:00Z,00000200,00000000,0000.53,0000.20,0000.46,-000.07,0000.24,0000.16,0000.13,0000.08,-000.11,18.6,24.9,10.9,07.4,0665.9,31.1
2021-06-25T02:48:00Z,00000200,00000000,0000.81,0000.46,0000.22,0000.24,0000.11,0000.26,0000.09,0000.37,0000.44,18.6,24.9,10.7,07.3,0665.9,31.1
2021-06-25T02:49:00Z,00000200,00000000,0000.57,0000.31,0000.40,0000.18,0000.11,0000.19,0000.43,0000.27,-000.07,18.7,24.9,10.8,07.3,0665.9,31.1
2021-06-25T02:50:00Z,00000200,00000000,0000.92,0000.28,0000.40,-000.06,0000.30,0000.36,0000.20,0000.22,0000.54,18.8,25.0,10.7,07.4,0665.8,31.1
2021-06-25T02:51:00Z,00000200,00000000,-000.08,0000.34,0000.23,-000.09,0000.05,-000.14,-000.15,0000.07,-000.09,18.8,25.0,10.7,07.3,0665.9,31.2
2021-06-25T02:52:00Z,00000200,00000000,0001.06,0000.69,0000.20,-000.16,0000.11,0000.11,0000.13,-000.20,-000.08,18.9,25.0,10.6,07.3,0665.8,31.2
2021-06-25T02:53:00Z,00000200,00000000,0000.18,0000.62,0000.02,-000.20,-000.00,0000.03,0000.02,0000.17,0000.22,19.0,25.1,10.7,07.4,0665.8,31.2
2021-06-25T02:54:00Z,00000200,00000000,0000.49,0000.30,0000.14,-000.01,-000.24,0000.18,-000.17,-000.30,-000.26,19.0,25.1,10.6,07.3,0665.8,31.2
2021-06-25T02:55:00Z,00000200,00000000,0000.38,0000.26,0000.47,-000.46,-000.09,0000.23,-000.01,0000.23,0000.02,19.0,25.1,10.6,07.3,0665.7,31.2
2021-06-25T02:56:00Z,00000200,00000000,0000.87,0000.41,0000.11,0000.11,0000.10,-000.02,0000.18,0000.14,-000.02,19.0,25.1,10.6,07.3,0665.7,31.2
2021-06-25T02:57:00Z,00000200,40000000,,,,,,,-000.15,-000.50,-000.15,19.0,25.2,10.5,07.2,0665.8,31.2
2021-06-25T02:58:00Z,00000200,60000000,,,,,,,0000.02,0000.31,0000.01,18.7,25.2,10.7,07.2,0664.7,31.2
2021-06-25T02:59:00Z,00000200,20000000,,,,,,,0000.03,-000.24,-000.06,18.7,25.3,10.8,07.2,0664.7,31.2
